sat.trackr.live / text

‹ back to catalog

STARLINK-32830

NORAD 63034 · 2025-034F

PAYLOAD ACTIVE UNKNOWN

§ Identity

Operator
Country
US
Launch date
2025-02-18
Launch site
AFETR
Launch vehicle
Mass (kg)
RCS (m²)

Purposes: comms

External: N2YO · Heavens-Above · Gunter

§ Orbital elements

Epoch: 2026-05-25T01:30:31.391712Z

Period
94.01 min
Inclination
53.1597°
Eccentricity
0.0001218
Mean motion
15.31713604 rev/d
Perigee alt
469.9 km
Apogee alt
471.5 km
Semi-major
6,848.8 km
B*
4.5565e-4
RAAN
263.1119°
Arg perigee
100.8854°
Mean anomaly
259.2285°
Rev number
7,078

§ Raw data

STARLINK-328301 63034U 25034F   26145.06286333  .00013806  00000+0  45565-3 0  99942 63034  53.1597 263.1119 0001218 100.8854 259.2285 15.31713604 70785

JSON: /api/v1/satellites/63034 · /tle

For live sub-satellite position, see the globe view (requires WebGL).

§ Visibility from observer

Set your observer location to see the next 7 days of passes ≥ 10°. The values pass through the URL so the page stays shareable.

No JS? Fill the form by hand. The geolocation button needs JavaScript.